STARLINK-31322, 59168

Orbit data source: Space-Track

STARLINK-31322, 59168 is a payload satellite owned by SpaceX/Seattle (US) in LEO that was launched on Mon, 04 Mar 2024 UTC via an FALCON 9 launch vehicle from the Air Force Eastern Test Range (AFETR). Payload-class satellites include a variety of spacecraft equipped with specific instruments for various scientific and technological missions. These include communications satellites like Starlink; space stations such as the ISS; scientific satellites like the Hubble; Earth observation satellites from companies like Planet Labs, Umbra, and HawkEye 360; GPS; miniature CubeSats for education and research; and military/defense satellites.

Loading next visibility...
Identifier
59168, 2024-044S
Orbit
LEO
Country
Flag of USUS
Related business
Manufacturer
SpaceX/Seattle
Mission
Operational Commercial Communications
Bus & Motor
STARLINK V2M, Unknown motor
Mass
730 kg wet, ~700 kg dry
Launch date (UTC)
2024-03-04 (2 years ago)
Launch vehicle
FALCON 9
Launch site
Air Force Eastern Test Range (AFETR)
Object type
Payload
Rocket body
Debris
Shape & HBR
Box + 2 Pan, 17.7 m
Radar Cross Section
33.884 m², Large (>1 m²)

Expand to show TLE details & history
Last TLE update: 3 days ago

TLE from 3 days ago
0 STARLINK-31322
1 59168U 24044S   26170.50812854 -.00001223  00000-0 -34945-4 0  9991
2 59168  43.0027 252.3292 0001752 280.8367  79.2287 15.27565504129165
Epoch: 2026-06-19T12:11Z
TLE epoch observation values (Epoch: 2026-06-19T12:11:42.305Z)
Latitude
-0.00007°
Longitude
161.66676°
Altitude
482.644 km
Speed
7.626 km/s
True Right ascension
16h 49m 18s
True Declination
0° 00' 00"
Sunlit
Object was in full shadow at epoch
Visualization orbit readout
Latitude
Unknown
Longitude
Unknown
Altitude
Unknown
Speed
Unknown
Apparent Right ascension
Unknown
Apparent Declination
Unknown
Sunlit
N/A
Visualization observer readout
Local Sidereal Time
21:30:51
Azimuth
Unknown
Elevation
Unknown
Doppler factor
Unknown
Orbital elements
Apogee altitude
486.24 km
Perigee altitude
483.835 km
Semi-major axis
6,863.174 km
Eccentricity
0.00018
Inclination
43.0027°
RAAN
252.3292°
Arg. of periapsis
280.8367°
True anomaly
79.24842°
Mean anomaly
79.2287°
Eccentric anomaly
79.23856°
Mean motion
3.81729 °/min
Orbital period
94.31 mins
BSTAR
-0.000034945
Loading maneuver chart data...
Computing Atmospheric mass density...
Loading historical data...
Loading historical data...
Loading historical data...
Loading historical data...
Loading historical data...
Loading historical data...
Loading historical data...

Documentation

Showing up to 5 results
|